Daviess Cnty AP, Washington,, IN

2:36 AM EDT on June 26, 2017 (GMT -0400)
Daviess County

Weather History for KDCY - April, 2014

Change the Weather History Date:

Sunday, April 27, 2014

  Actual Average (KLWV) Record (KLWV)
Temperature  
Mean Temperature 69 °F -  
Max Temperature 81 °F 68 °F 83 °F (2014)
Min Temperature 57 °F 46 °F 38 °F (2015)
Cooling Degree Days 4    
Growing Degree Days 19 (Base 50)    
Moisture  
Dew Point 55 °F    
Average Humidity 72    
Maximum Humidity 95    
Minimum Humidity 43    
Precipitation  
Precipitation 0.07 in - - ()
Sea Level Pressure  
Sea Level Pressure 29.84 in    
Wind  
Wind Speed 6 mph (ESE)    
Max Wind Speed 20 mph    
Max Gust Speed 29 mph    
Visibility 10 miles    
Events Rain , Thunderstorm    
Averages and records for this station are not official NWS values.
T = Trace of Precipitation, MM = Missing Value Source: NWS Daily Summary

Daily Weather History Graph

Daily Weather History Graph

Search for Another Location

Airport or City:

Trip Planner

Search our weather history database for the weather conditions in past years. The results will help you decide how hot, cold, wet, or windy it might be!

Date:

Astronomy

Apr. 27, 2014 Rise Set
Actual Time 6:55 AM EDT 8:36 PM EDT
Civil Twilight 6:27 AM EDT 9:05 PM EDT
Nautical Twilight 5:53 AM EDT 9:39 PM EDT
Astronomical Twilight 5:17 AM EDT 10:16 PM EDT
Moon 5:54 AM EDT (4/27) 7:11 PM EDT (4/27)
Length of Visible Light 14h 37m
Length of Day
13h 40m
Waning Crescent, 3% of the Moon is Illuminated
Apr 27
Waning Crescent
Apr 29
New
May 6
First Quarter
May 14
Full
May 21
Last Quarter

Hourly Weather History & Observations

Time (EDT) Temp. Heat Index Dew Point Humidity Pressure Visibility Wind Dir Wind Speed Gust Speed Precip Events Conditions
12:15 AM 58.1 °F - 50.9 °F 77% 29.90 in 10.0 mi Calm Calm - N/A   Clear
12:35 AM 57.9 °F - 51.1 °F 78% 29.90 in 10.0 mi Calm Calm - N/A   Clear
12:55 AM 59.0 °F - 51.6 °F 76% 29.89 in 10.0 mi SSE 4.6 mph - N/A   Scattered Clouds
1:15 AM 57.6 °F - 52.3 °F 83% 29.90 in 10.0 mi Calm Calm - N/A   Scattered Clouds
1:35 AM 58.5 °F - 52.2 °F 80% 29.88 in 10.0 mi East 5.8 mph - N/A   Scattered Clouds
2:15 AM 59.5 °F - 50.9 °F 73% 29.87 in 10.0 mi Calm Calm - N/A   Clear
2:35 AM 59.0 °F - 49.8 °F 72% 29.87 in 10.0 mi Calm Calm - N/A   Scattered Clouds
2:50 AM 57.2 °F - 50.2 °F 77% 29.87 in 10.0 mi Calm Calm - N/A   Clear
3:15 AM 57.9 °F - 49.8 °F 74% 29.87 in 10.0 mi Calm Calm - N/A   Clear
3:35 AM 57.7 °F - 49.6 °F 74% 29.86 in 10.0 mi SE 4.6 mph - N/A   Clear
3:55 AM 59.0 °F - 48.2 °F 67% 29.87 in 10.0 mi Calm Calm - N/A   Clear
4:15 AM 58.6 °F - 48.2 °F 68% 29.86 in 10.0 mi SE 9.2 mph - N/A   Clear
4:35 AM 58.8 °F - 47.1 °F 65% 29.87 in 10.0 mi East 6.9 mph - N/A   Clear
4:55 AM 57.9 °F - 47.3 °F 68% 29.87 in 10.0 mi ESE 6.9 mph - N/A   Clear
5:15 AM 57.2 °F - 47.7 °F 70% 29.87 in 10.0 mi SSE 5.8 mph - N/A   Clear
5:35 AM 58.3 °F - 47.3 °F 67% 29.88 in 10.0 mi NE 4.6 mph - N/A   Clear
5:55 AM 57.7 °F - 46.9 °F 67% 29.89 in 10.0 mi ENE 6.9 mph - N/A   Clear
6:15 AM 57.4 °F - 47.3 °F 69% 29.89 in 10.0 mi East 4.6 mph - N/A   Clear
6:35 AM 57.0 °F - 48.0 °F 72% 29.89 in 10.0 mi ESE 5.8 mph - N/A   Clear
6:55 AM 57.4 °F - 47.7 °F 70% 29.90 in 10.0 mi ENE 4.6 mph - N/A   Clear
7:15 AM 57.4 °F - 47.7 °F 70% 29.91 in 10.0 mi ESE 6.9 mph - N/A   Clear
7:35 AM 57.7 °F - 48.0 °F 70% 29.92 in 10.0 mi ESE 8.1 mph - N/A   Clear
7:55 AM 58.1 °F - 48.2 °F 70% 29.92 in 10.0 mi ESE 6.9 mph - N/A   Clear
8:15 AM 58.8 °F - 48.0 °F 67% 29.92 in 10.0 mi ESE 9.2 mph - N/A   Clear
8:35 AM 60.3 °F - 48.0 °F 64% 29.92 in 10.0 mi East 12.7 mph - N/A   Clear
8:55 AM 61.0 °F - 48.4 °F 63% 29.91 in 10.0 mi ESE 11.5 mph - N/A   Clear
9:15 AM 61.0 °F - 48.2 °F 63% 29.90 in 10.0 mi ESE 10.4 mph - N/A   Clear
9:35 AM 61.9 °F - 48.4 °F 61% 29.90 in 10.0 mi ESE 9.2 mph - N/A   Clear
9:55 AM 64.0 °F - 49.6 °F 59% 29.90 in 10.0 mi ESE 9.2 mph - N/A   Clear
10:15 AM 65.8 °F - 50.0 °F 57% 29.89 in 10.0 mi ESE 12.7 mph - N/A   Clear
10:35 AM 66.7 °F - 50.0 °F 55% 29.88 in 10.0 mi ESE 12.7 mph - N/A   Clear
10:55 AM 67.3 °F - 50.0 °F 54% 29.87 in 10.0 mi ESE 13.8 mph - N/A   Clear
11:15 AM 69.3 °F - 51.3 °F 53% 29.86 in 10.0 mi ESE 11.5 mph - N/A   Clear
11:35 AM 70.5 °F - 52.2 °F 52% 29.86 in 10.0 mi ESE 12.7 mph 17.3 mph N/A   Clear
11:55 AM 71.6 °F - 52.5 °F 51% 29.85 in 10.0 mi ESE 15.0 mph - N/A   Clear
12:15 PM 73.2 °F - 53.2 °F 49% 29.85 in 10.0 mi East 16.1 mph - N/A   Clear
12:35 PM 74.5 °F - 54.0 °F 49% 29.84 in 10.0 mi ESE 12.7 mph - N/A   Clear
12:55 PM 77.0 °F - 55.2 °F 47% 29.82 in 10.0 mi ESE 12.7 mph - N/A   Clear
1:35 PM 79.2 °F - 55.6 °F 44% 29.81 in 10.0 mi ESE 16.1 mph 24.2 mph N/A   Clear
1:55 PM 80.1 °F 80.3 °F 56.1 °F 44% 29.80 in 10.0 mi ESE 15.0 mph 21.9 mph N/A   Clear
2:15 PM 81.1 °F 81.1 °F 56.7 °F 43% 29.78 in 10.0 mi SE 16.1 mph 19.6 mph N/A   Clear
2:35 PM 80.4 °F 80.6 °F 56.5 °F 44% 29.78 in 10.0 mi SE 17.3 mph 23.0 mph N/A   Clear
2:55 PM 79.7 °F - 56.5 °F 45% 29.78 in 10.0 mi SE 16.1 mph 24.2 mph N/A   Clear
3:15 PM 78.6 °F - 56.1 °F 46% 29.77 in 10.0 mi ESE 12.7 mph 20.7 mph N/A   Mostly Cloudy
3:35 PM 77.2 °F - 56.1 °F 48% 29.77 in 10.0 mi SE 13.8 mph - N/A   Mostly Cloudy
3:55 PM 76.5 °F - 55.4 °F 48% 29.77 in 10.0 mi SE 11.5 mph - N/A   Scattered Clouds
4:15 PM 66.7 °F - 60.4 °F 80% 29.81 in 10.0 mi SW 19.6 mph 28.8 mph N/A Rain , Thunderstorm Light Thunderstorms and Rain
4:35 PM 65.3 °F - 61.3 °F 87% 29.80 in 10.0 mi SW 15.0 mph - 0.01 in Rain , Thunderstorm Light Thunderstorms and Rain
4:55 PM 64.9 °F - 61.9 °F 90% 29.78 in 10.0 mi SSW 9.2 mph - 0.03 in Rain Light Rain
5:15 PM 64.6 °F - 62.6 °F 93% 29.77 in 7.0 mi South 5.8 mph - 0.03 in Rain Rain
5:35 PM 64.8 °F - 63.0 °F 94% 29.78 in 10.0 mi SSE 6.9 mph - 0.03 in Rain Light Rain
6:15 PM 65.8 °F - 62.8 °F 90% 29.82 in 10.0 mi SSE 11.5 mph - 0.01 in Rain Light Rain
6:35 PM 66.0 °F - 63.1 °F 90% 29.79 in 10.0 mi SE 5.8 mph - 0.01 in   Scattered Clouds
6:55 PM 66.7 °F - 62.6 °F 86% 29.79 in 10.0 mi SE 4.6 mph - 0.01 in   Mostly Cloudy
7:15 PM 67.1 °F - 62.6 °F 85% 29.78 in 10.0 mi SE 5.8 mph - N/A   Mostly Cloudy
7:35 PM 66.6 °F - 63.9 °F 91% 29.79 in 10.0 mi SE 5.8 mph - N/A   Mostly Cloudy
7:55 PM 66.4 °F - 63.1 °F 89% 29.79 in 10.0 mi SE 8.1 mph - N/A   Overcast
8:15 PM 65.8 °F - 63.0 °F 90% 29.79 in 10.0 mi SE 8.1 mph - N/A Thunderstorm Mostly Cloudy
8:35 PM 65.8 °F - 62.6 °F 89% 29.79 in 10.0 mi SSE 6.9 mph - N/A   Overcast
8:55 PM 64.9 °F - 62.6 °F 92% 29.78 in 10.0 mi SSE 4.6 mph - N/A   Mostly Cloudy
9:15 PM 64.0 °F - 62.6 °F 95% 29.77 in 10.0 mi East 8.1 mph - N/A   Scattered Clouds
9:35 PM 64.4 °F - 62.1 °F 92% 29.76 in 10.0 mi East 8.1 mph - N/A   Scattered Clouds
9:55 PM 63.7 °F - 61.9 °F 94% 29.74 in 10.0 mi ESE 9.2 mph - N/A   Clear
10:15 PM 64.0 °F - 61.9 °F 93% 29.74 in 10.0 mi ESE 11.5 mph - N/A   Clear
10:35 PM 63.9 °F - 61.7 °F 93% 29.75 in 10.0 mi ESE 10.4 mph - N/A   Scattered Clouds
10:55 PM 64.6 °F - 61.5 °F 90% 29.74 in 10.0 mi ESE 12.7 mph - N/A   Scattered Clouds
11:15 PM 64.4 °F - 61.3 °F 90% 29.76 in 10.0 mi ESE 10.4 mph - N/A   Clear
11:35 PM 64.2 °F - 61.3 °F 90% 29.77 in 10.0 mi SE 11.5 mph - N/A   Scattered Clouds
11:55 PM 64.4 °F - 61.2 °F 89% 29.78 in 10.0 mi SSE 9.2 mph - N/A   Mostly Cloudy